COSMOS 2251 DEB, 34024

Orbit data source: Space-Track

COSMOS 2251 DEB, 34024 is space debris in LEO originally from a launch on Wed, 16 Jun 1993 UTC launched from the Plesetsk Missile And Space Complex (PKMTR). The debris from Iridium 33, an American commercial communications satellite, has been tracked extensively since its accidental collision with the defunct Russian satellite Cosmos 2251 in 2009. This event, occurring at high speed in low Earth orbit (LEO), generated thousands of pieces of space debris, significantly increasing the risk of further collisions. The Iridium 33 debris cloud has impacted space traffic management and orbital debris mitigation strategies, making it a subject of ongoing study in space situational awareness.

Loading next visibility...
Identifier
34024, 1993-036HK
Orbit
LEO
Country
Flag of CISCIS
Related business
Manufacturer
Unknown
Mission
Spacecraft
Bus & Motor
Unknown
Mass
Unknown
Launch date (UTC)
1993-06-16 (33 years ago)
Launch vehicle
Unknown
Launch site
Plesetsk Missile And Space Complex (PKMTR)
Object type
Payload
Rocket body
Debris
Shape & HBR
Unknown shape, 0.1 m
Radar Cross Section
Medium (>0.1 m² and <1 m²)

Expand to show TLE details & history
Last TLE update: 2 days ago

TLE from 2 days ago
0 COSMOS 2251 DEB
1 34024U 93036HK  26171.42909531  .00000251  00000-0  96031-4 0  9995
2 34024  74.0467 328.2621 0021613 335.1948  55.1305 14.35590811907465
Epoch: 2026-06-20T10:17Z
TLE epoch observation values (Epoch: 2026-06-20T10:17:53.834Z)
Latitude
29.29107°
Longitude
-85.67787°
Altitude
767.616 km
Speed
7.478 km/s
True Right ascension
22h 29m 45s
True Declination
29° 08' 41"
Sunlit
Object was in daylight at epoch
Visualization orbit readout
Latitude
Unknown
Longitude
Unknown
Altitude
Unknown
Speed
Unknown
Apparent Right ascension
Unknown
Apparent Declination
Unknown
Sunlit
N/A
Visualization observer readout
Local Sidereal Time
06:13:22
Azimuth
Unknown
Elevation
Unknown
Doppler factor
Unknown
Orbital elements
Apogee altitude
786.178 km
Perigee altitude
755.276 km
Semi-major axis
7,148.864 km
Eccentricity
0.00216
Inclination
74.0467°
RAAN
328.2621°
Arg. of periapsis
335.1948°
True anomaly
55.33401°
Mean anomaly
55.1305°
Eccentric anomaly
55.23223°
Mean motion
3.59077 °/min
Orbital period
100.26 mins
BSTAR
0.000096031

Documentation

Showing up to 5 results
|